sat.trackr.live / text

‹ back to catalog

STARLINK-32656

NORAD 62452 · 2024-251W

PAYLOAD ACTIVE UNKNOWN

§ Identity

Operator
Country
US
Launch date
2024-12-29
Launch site
AFWTR
Launch vehicle
Mass (kg)
RCS (m²)

Purposes: comms

External: N2YO · Heavens-Above · Gunter

§ Orbital elements

Epoch: 2026-05-24T23:27:50.191200Z

Period
94.10 min
Inclination
53.1603°
Eccentricity
0.0001215
Mean motion
15.30209810 rev/d
Perigee alt
474.4 km
Apogee alt
476.0 km
Semi-major
6,853.3 km
B*
4.3826e-4
RAAN
341.2915°
Arg perigee
80.9543°
Mean anomaly
279.1595°
Rev number
7,946

§ Raw data

STARLINK-326561 62452U 24251W   26144.97766425  .00012647  00000+0  43826-3 0  99912 62452  53.1603 341.2915 0001215  80.9543 279.1595 15.30209810 79465

JSON: /api/v1/satellites/62452 · /tle

For live sub-satellite position, see the globe view (requires WebGL).

§ Visibility from observer

Set your observer location to see the next 7 days of passes ≥ 10°. The values pass through the URL so the page stays shareable.

No JS? Fill the form by hand. The geolocation button needs JavaScript.